Year,Month,Day,Hour,Minute,Value (Times are PST for temperature in C)
2014,09,13,00,00,17.20
2014,09,13,00,01,17.20
2014,09,13,00,02,17.10
2014,09,13,00,03,17.00
2014,09,13,00,04,16.90
2014,09,13,00,05,16.90
2014,09,13,00,06,16.90
2014,09,13,00,07,17.00
2014,09,13,00,08,17.00
2014,09,13,00,09,17.10
2014,09,13,00,10,17.10
2014,09,13,00,11,17.10
2014,09,13,00,12,17.10
2014,09,13,00,13,17.20
2014,09,13,00,14,17.20
2014,09,13,00,15,17.20
2014,09,13,00,16,17.20
2014,09,13,00,17,17.20
2014,09,13,00,18,17.20
2014,09,13,00,19,17.20
2014,09,13,00,20,17.30
2014,09,13,00,21,17.30
2014,09,13,00,22,17.30
2014,09,13,00,23,17.30
2014,09,13,00,24,17.30
2014,09,13,00,25,17.30
2014,09,13,00,26,17.30
2014,09,13,00,27,17.30
2014,09,13,00,28,17.30
2014,09,13,00,29,17.30
2014,09,13,00,30,17.30
2014,09,13,00,31,17.30
2014,09,13,00,32,17.30
2014,09,13,00,33,17.30
2014,09,13,00,34,17.30
2014,09,13,00,35,17.30
2014,09,13,00,36,17.20
2014,09,13,00,37,17.30
2014,09,13,00,38,17.20
2014,09,13,00,39,17.20
2014,09,13,00,40,17.20
2014,09,13,00,41,17.20
2014,09,13,00,42,17.20
2014,09,13,00,43,17.20
2014,09,13,00,44,17.00
2014,09,13,00,45,16.90
2014,09,13,00,46,16.80
2014,09,13,00,47,16.70
2014,09,13,00,48,16.60
2014,09,13,00,49,16.60
2014,09,13,00,50,16.60
2014,09,13,00,51,16.60
2014,09,13,00,52,16.50
2014,09,13,00,53,16.50
2014,09,13,00,54,16.40
2014,09,13,00,55,16.40
2014,09,13,00,56,16.30
2014,09,13,00,57,16.20
2014,09,13,00,58,16.20
2014,09,13,00,59,16.20
2014,09,13,01,00,16.20
2014,09,13,01,01,16.20
2014,09,13,01,02,16.20
2014,09,13,01,03,16.20
2014,09,13,01,04,16.10
2014,09,13,01,05,16.10
2014,09,13,01,06,16.10
2014,09,13,01,07,16.10
2014,09,13,01,08,16.00
2014,09,13,01,09,16.00
2014,09,13,01,10,15.90
2014,09,13,01,11,15.80
2014,09,13,01,12,15.70
2014,09,13,01,13,15.70
2014,09,13,01,14,15.70
2014,09,13,01,15,15.70
2014,09,13,01,16,15.70
2014,09,13,01,17,15.80
2014,09,13,01,18,15.90
2014,09,13,01,19,16.10
2014,09,13,01,20,16.20
2014,09,13,01,21,16.30
2014,09,13,01,22,16.40
2014,09,13,01,23,16.40
2014,09,13,01,24,16.50
2014,09,13,01,25,16.60
2014,09,13,01,26,16.70
2014,09,13,01,27,16.80
2014,09,13,01,28,16.80
2014,09,13,01,29,16.90
2014,09,13,01,30,17.00
2014,09,13,01,31,17.10
2014,09,13,01,32,17.20
2014,09,13,01,33,17.20
2014,09,13,01,34,17.30
2014,09,13,01,35,17.30
2014,09,13,01,36,17.30
2014,09,13,01,37,17.30
2014,09,13,01,38,17.40
2014,09,13,01,39,17.40
2014,09,13,01,40,17.40
2014,09,13,01,41,17.30
2014,09,13,01,42,17.30
2014,09,13,01,43,17.30
2014,09,13,01,44,17.20
2014,09,13,01,45,17.20
2014,09,13,01,46,17.10
2014,09,13,01,47,17.00
2014,09,13,01,48,16.80
2014,09,13,01,49,16.70
2014,09,13,01,50,16.60
2014,09,13,01,51,16.50
2014,09,13,01,52,16.30
2014,09,13,01,53,16.20
2014,09,13,01,54,16.00
2014,09,13,01,55,15.80
2014,09,13,01,56,15.70
2014,09,13,01,57,15.60
2014,09,13,01,58,15.50
2014,09,13,01,59,15.60
2014,09,13,02,00,15.70
2014,09,13,02,01,15.70
2014,09,13,02,02,15.70
2014,09,13,02,03,15.60
2014,09,13,02,04,15.60
2014,09,13,02,05,15.50
2014,09,13,02,06,15.40
2014,09,13,02,07,15.30
2014,09,13,02,08,15.20
2014,09,13,02,09,15.10
2014,09,13,02,10,14.90
2014,09,13,02,11,14.80
2014,09,13,02,12,14.60
2014,09,13,02,13,14.40
2014,09,13,02,14,14.20
2014,09,13,02,15,14.10
2014,09,13,02,16,13.90
2014,09,13,02,17,13.80
2014,09,13,02,18,13.70
2014,09,13,02,19,13.60
2014,09,13,02,20,13.60
2014,09,13,02,21,13.50
2014,09,13,02,22,13.40
2014,09,13,02,23,13.50
2014,09,13,02,24,13.50
2014,09,13,02,25,13.50
2014,09,13,02,26,13.60
2014,09,13,02,27,13.60
2014,09,13,02,28,13.60
2014,09,13,02,29,13.70
2014,09,13,02,30,13.70
2014,09,13,02,31,13.70
2014,09,13,02,32,13.80
2014,09,13,02,33,13.90
2014,09,13,02,34,14.00
2014,09,13,02,35,14.00
2014,09,13,02,36,14.10
2014,09,13,02,37,14.20
2014,09,13,02,38,14.30
2014,09,13,02,39,14.30
2014,09,13,02,40,14.50
2014,09,13,02,41,14.60
2014,09,13,02,42,14.60
2014,09,13,02,43,14.60
2014,09,13,02,44,14.60
2014,09,13,02,45,14.50
2014,09,13,02,46,14.40
2014,09,13,02,47,14.30
2014,09,13,02,48,14.30
2014,09,13,02,49,14.40
2014,09,13,02,50,14.60
2014,09,13,02,51,14.90
2014,09,13,02,52,15.10
2014,09,13,02,53,15.30
2014,09,13,02,54,15.50
2014,09,13,02,55,15.50
2014,09,13,02,56,15.50
2014,09,13,02,57,15.50
2014,09,13,02,58,15.40
2014,09,13,02,59,15.40
2014,09,13,03,00,15.40
2014,09,13,03,01,15.40
2014,09,13,03,02,15.40
2014,09,13,03,03,15.40
2014,09,13,03,04,15.40
2014,09,13,03,05,15.30
2014,09,13,03,06,15.30
2014,09,13,03,07,15.30
2014,09,13,03,08,15.30
2014,09,13,03,09,15.40
2014,09,13,03,10,15.40
2014,09,13,03,11,15.40
2014,09,13,03,12,15.40
2014,09,13,03,13,15.40
2014,09,13,03,14,15.40
2014,09,13,03,15,15.30
2014,09,13,03,16,15.30
2014,09,13,03,17,15.30
2014,09,13,03,18,15.20
2014,09,13,03,19,15.10
2014,09,13,03,20,15.00
2014,09,13,03,21,15.00
2014,09,13,03,22,15.00
2014,09,13,03,23,15.00
2014,09,13,03,24,15.10
2014,09,13,03,25,15.10
2014,09,13,03,26,15.10
2014,09,13,03,27,15.10
2014,09,13,03,28,15.20
2014,09,13,03,29,15.20
2014,09,13,03,30,15.20
2014,09,13,03,31,15.20
2014,09,13,03,32,15.30
2014,09,13,03,33,15.30
2014,09,13,03,34,15.30
2014,09,13,03,35,15.30
2014,09,13,03,36,15.30
2014,09,13,03,37,15.30
2014,09,13,03,38,15.30
2014,09,13,03,39,15.30
2014,09,13,03,40,15.30
2014,09,13,03,41,15.30
2014,09,13,03,42,15.20
2014,09,13,03,43,15.20
2014,09,13,03,44,15.20
2014,09,13,03,45,15.20
2014,09,13,03,46,15.20
2014,09,13,03,47,15.20
2014,09,13,03,48,15.20
2014,09,13,03,49,15.20
2014,09,13,03,50,15.20
2014,09,13,03,51,15.20
2014,09,13,03,52,15.20
2014,09,13,03,53,15.20
2014,09,13,03,54,15.10
2014,09,13,03,55,15.10
2014,09,13,03,56,15.10
2014,09,13,03,57,15.00
2014,09,13,03,58,15.00
2014,09,13,03,59,14.90
2014,09,13,04,00,15.00
2014,09,13,04,01,15.00
2014,09,13,04,02,14.90
2014,09,13,04,03,14.90
2014,09,13,04,04,14.90
2014,09,13,04,05,14.90
2014,09,13,04,06,14.80
2014,09,13,04,07,14.80
2014,09,13,04,08,14.80
2014,09,13,04,09,14.80
2014,09,13,04,10,14.70
2014,09,13,04,11,14.70
2014,09,13,04,12,14.60
2014,09,13,04,13,14.70
2014,09,13,04,14,14.70
2014,09,13,04,15,14.70
2014,09,13,04,16,14.70
2014,09,13,04,17,14.60
2014,09,13,04,18,14.60
2014,09,13,04,19,14.60
2014,09,13,04,20,14.60
2014,09,13,04,21,14.50
2014,09,13,04,22,14.50
2014,09,13,04,23,14.50
2014,09,13,04,24,14.50
2014,09,13,04,25,14.50
2014,09,13,04,26,14.50
2014,09,13,04,27,14.60
2014,09,13,04,28,14.60
2014,09,13,04,29,14.60
2014,09,13,04,30,14.60
2014,09,13,04,31,14.70
2014,09,13,04,32,14.70
2014,09,13,04,33,14.70
2014,09,13,04,34,14.70
2014,09,13,04,35,14.60
2014,09,13,04,36,14.60
2014,09,13,04,37,14.50
2014,09,13,04,38,14.40
2014,09,13,04,39,14.30
2014,09,13,04,40,14.30
2014,09,13,04,41,14.20
2014,09,13,04,42,14.10
2014,09,13,04,43,14.10
2014,09,13,04,44,14.10
2014,09,13,04,45,14.00
2014,09,13,04,46,14.00
2014,09,13,04,47,14.00
2014,09,13,04,48,14.00
2014,09,13,04,49,13.90
2014,09,13,04,50,13.90
2014,09,13,04,51,13.90
2014,09,13,04,52,13.90
2014,09,13,04,53,13.90
2014,09,13,04,54,13.90
2014,09,13,04,55,14.00
2014,09,13,04,56,14.00
2014,09,13,04,57,14.00
2014,09,13,04,58,14.10
2014,09,13,04,59,14.10
2014,09,13,05,00,14.10
2014,09,13,05,01,14.20
2014,09,13,05,02,14.30
2014,09,13,05,03,14.30
2014,09,13,05,04,14.40
2014,09,13,05,05,14.40
2014,09,13,05,06,14.50
2014,09,13,05,07,14.60
2014,09,13,05,08,14.60
2014,09,13,05,09,14.60
2014,09,13,05,10,14.60
2014,09,13,05,11,14.50
2014,09,13,05,12,14.40
2014,09,13,05,13,14.40
2014,09,13,05,14,14.50
2014,09,13,05,15,14.50
2014,09,13,05,16,14.60
2014,09,13,05,17,14.60
2014,09,13,05,18,14.60
2014,09,13,05,19,14.60
2014,09,13,05,20,14.60
2014,09,13,05,21,14.70
2014,09,13,05,22,14.70
2014,09,13,05,23,14.80
2014,09,13,05,24,14.70
2014,09,13,05,25,14.70
2014,09,13,05,26,14.90
2014,09,13,05,27,15.10
2014,09,13,05,28,15.30
2014,09,13,05,29,15.40
2014,09,13,05,30,15.50
2014,09,13,05,31,15.70
2014,09,13,05,32,15.80
2014,09,13,05,33,15.90
2014,09,13,05,34,16.00
2014,09,13,05,35,16.00
2014,09,13,05,36,16.10
2014,09,13,05,37,16.10
2014,09,13,05,38,16.20
2014,09,13,05,39,16.20
2014,09,13,05,40,16.30
2014,09,13,05,41,16.30
2014,09,13,05,42,16.30
2014,09,13,05,43,16.30
2014,09,13,05,44,16.30
2014,09,13,05,45,16.30
2014,09,13,05,46,16.30
2014,09,13,05,47,16.30
2014,09,13,05,48,16.20
2014,09,13,05,49,16.10
2014,09,13,05,50,16.00
2014,09,13,05,51,16.00
2014,09,13,05,52,16.00
2014,09,13,05,53,16.00
2014,09,13,05,54,16.10
2014,09,13,05,55,16.10
2014,09,13,05,56,16.10
2014,09,13,05,57,16.10
2014,09,13,05,58,16.00
2014,09,13,05,59,16.00
2014,09,13,06,00,15.90
2014,09,13,06,01,15.90
2014,09,13,06,02,15.90
2014,09,13,06,03,15.80
2014,09,13,06,04,15.80
2014,09,13,06,05,15.90
2014,09,13,06,06,15.90
2014,09,13,06,07,16.00
2014,09,13,06,08,16.00
2014,09,13,06,09,15.90
2014,09,13,06,10,15.90
2014,09,13,06,11,15.90
2014,09,13,06,12,16.00
2014,09,13,06,13,16.10
2014,09,13,06,14,16.20
2014,09,13,06,15,16.20
2014,09,13,06,16,16.20
2014,09,13,06,17,16.20
2014,09,13,06,18,16.20
2014,09,13,06,19,16.10
2014,09,13,06,20,16.10
2014,09,13,06,21,16.00
2014,09,13,06,22,15.80
2014,09,13,06,23,15.70
2014,09,13,06,24,15.40
2014,09,13,06,25,15.30
2014,09,13,06,26,15.00
2014,09,13,06,27,14.80
2014,09,13,06,28,14.70
2014,09,13,06,29,14.50
2014,09,13,06,30,14.30
2014,09,13,06,31,14.30
2014,09,13,06,32,14.20
2014,09,13,06,33,14.10
2014,09,13,06,34,14.00
2014,09,13,06,35,14.00
2014,09,13,06,36,13.80
2014,09,13,06,37,13.70
2014,09,13,06,38,13.60
2014,09,13,06,39,13.60
2014,09,13,06,40,13.70
2014,09,13,06,41,13.70
2014,09,13,06,42,13.80
2014,09,13,06,43,13.80
2014,09,13,06,44,13.80
2014,09,13,06,45,13.80
2014,09,13,06,46,13.80
2014,09,13,06,47,13.80
2014,09,13,06,48,13.80
2014,09,13,06,49,13.80
2014,09,13,06,50,13.80
2014,09,13,06,51,13.70
2014,09,13,06,52,13.70
2014,09,13,06,53,13.70
2014,09,13,06,54,13.60
2014,09,13,06,55,13.60
2014,09,13,06,56,13.50
2014,09,13,06,57,13.50
2014,09,13,06,58,13.50
2014,09,13,06,59,13.40
2014,09,13,07,00,13.40
2014,09,13,07,01,13.40
2014,09,13,07,02,13.40
2014,09,13,07,03,13.40
2014,09,13,07,04,13.30
2014,09,13,07,05,13.30
2014,09,13,07,06,13.20
2014,09,13,07,07,13.20
2014,09,13,07,08,13.20
2014,09,13,07,09,13.30
2014,09,13,07,10,13.30
2014,09,13,07,11,13.30
2014,09,13,07,12,13.40
2014,09,13,07,13,13.40
2014,09,13,07,14,13.40
2014,09,13,07,15,13.50
2014,09,13,07,16,13.50
2014,09,13,07,17,13.60
2014,09,13,07,18,13.60
2014,09,13,07,19,13.60
2014,09,13,07,20,13.60
2014,09,13,07,21,13.60
2014,09,13,07,22,13.60
2014,09,13,07,23,13.60
2014,09,13,07,24,13.60
2014,09,13,07,25,13.60
2014,09,13,07,26,13.70
2014,09,13,07,27,13.70
2014,09,13,07,28,13.70
2014,09,13,07,29,13.70
2014,09,13,07,30,13.70
2014,09,13,07,31,13.70
2014,09,13,07,32,13.70
2014,09,13,07,33,13.70
2014,09,13,07,34,13.70
2014,09,13,07,35,13.70
2014,09,13,07,36,13.70
2014,09,13,07,37,13.80
2014,09,13,07,38,13.80
2014,09,13,07,39,13.80
2014,09,13,07,40,13.80
2014,09,13,07,41,13.80
2014,09,13,07,42,13.80
2014,09,13,07,43,13.70
2014,09,13,07,44,13.70
2014,09,13,07,45,13.60
2014,09,13,07,46,13.70
2014,09,13,07,47,13.60
2014,09,13,07,48,13.60
2014,09,13,07,49,13.50
2014,09,13,07,50,13.50
2014,09,13,07,51,13.50
2014,09,13,07,52,13.50
2014,09,13,07,53,13.50
2014,09,13,07,54,13.50
2014,09,13,07,55,13.60
2014,09,13,07,56,13.60
2014,09,13,07,57,13.60
2014,09,13,07,58,13.60
2014,09,13,07,59,13.60
2014,09,13,08,00,13.80
2014,09,13,08,01,13.80
2014,09,13,08,02,13.80
2014,09,13,08,03,13.80
2014,09,13,08,04,13.80
2014,09,13,08,05,13.80
2014,09,13,08,06,13.80
2014,09,13,08,07,13.80
2014,09,13,08,08,13.80
2014,09,13,08,09,13.90
2014,09,13,08,10,13.90
2014,09,13,08,11,13.90
2014,09,13,08,12,13.90
2014,09,13,08,13,13.90
2014,09,13,08,14,13.90
2014,09,13,08,15,13.90
2014,09,13,08,16,13.90
2014,09,13,08,17,13.90
2014,09,13,08,18,13.90
2014,09,13,08,19,13.90
2014,09,13,08,20,13.90
2014,09,13,08,21,13.90
2014,09,13,08,22,13.80
2014,09,13,08,23,13.80
2014,09,13,08,24,13.70
2014,09,13,08,25,13.60
2014,09,13,08,26,13.60
2014,09,13,08,27,13.50
2014,09,13,08,28,13.50
2014,09,13,08,29,13.40
2014,09,13,08,30,13.40
2014,09,13,08,31,13.30
2014,09,13,08,32,13.30
2014,09,13,08,33,13.20
2014,09,13,08,34,13.20
2014,09,13,08,35,13.20
2014,09,13,08,36,13.10
2014,09,13,08,37,13.10
2014,09,13,08,38,13.10
2014,09,13,08,39,13.10
2014,09,13,08,40,13.00
2014,09,13,08,41,13.00
2014,09,13,08,42,13.00
2014,09,13,08,43,13.10
2014,09,13,08,44,13.00
2014,09,13,08,45,13.00
2014,09,13,08,46,12.90
2014,09,13,08,47,12.90
2014,09,13,08,48,12.90
2014,09,13,08,49,13.00
2014,09,13,08,50,13.00
2014,09,13,08,51,13.10
2014,09,13,08,52,13.20
2014,09,13,08,53,13.30
2014,09,13,08,54,13.30
2014,09,13,08,55,13.30
2014,09,13,08,56,13.40
2014,09,13,08,57,13.40
2014,09,13,08,58,13.40
2014,09,13,08,59,13.50
2014,09,13,09,00,13.60
2014,09,13,09,01,13.70
2014,09,13,09,02,13.90
2014,09,13,09,03,14.00
2014,09,13,09,04,14.10
2014,09,13,09,05,14.20
2014,09,13,09,06,14.30
2014,09,13,09,07,14.30
2014,09,13,09,08,14.40
2014,09,13,09,09,14.40
2014,09,13,09,10,14.40
2014,09,13,09,11,14.50
2014,09,13,09,12,14.60
2014,09,13,09,13,14.60
2014,09,13,09,14,14.70
2014,09,13,09,15,14.70
2014,09,13,09,16,14.70
2014,09,13,09,17,14.70
2014,09,13,09,18,14.70
2014,09,13,09,19,14.70
2014,09,13,09,20,14.80
2014,09,13,09,21,14.80
2014,09,13,09,22,14.80
2014,09,13,09,23,14.80
2014,09,13,09,24,14.80
2014,09,13,09,25,14.80
2014,09,13,09,26,14.80
2014,09,13,09,27,14.70
2014,09,13,09,28,14.60
2014,09,13,09,29,14.40
2014,09,13,09,30,14.20
2014,09,13,09,31,14.00
2014,09,13,09,32,13.90
2014,09,13,09,33,13.80
2014,09,13,09,34,13.60
2014,09,13,09,35,13.50
2014,09,13,09,36,13.40
2014,09,13,09,37,13.50
2014,09,13,09,38,13.60
2014,09,13,09,39,13.70
2014,09,13,09,40,13.80
2014,09,13,09,41,13.90
2014,09,13,09,42,14.00
2014,09,13,09,43,14.10
2014,09,13,09,44,14.30
2014,09,13,09,45,14.40
2014,09,13,09,46,14.50
2014,09,13,09,47,14.60
2014,09,13,09,48,14.60
2014,09,13,09,49,14.70
2014,09,13,09,50,14.70
2014,09,13,09,51,14.70
2014,09,13,09,52,14.70
2014,09,13,09,53,14.70
2014,09,13,09,54,14.80
2014,09,13,09,55,14.80
2014,09,13,09,56,14.90
2014,09,13,09,57,15.00
2014,09,13,09,58,15.10
2014,09,13,09,59,15.10
2014,09,13,10,00,15.10
2014,09,13,10,01,15.10
2014,09,13,10,02,15.00
2014,09,13,10,03,14.90
2014,09,13,10,04,14.90
2014,09,13,10,05,14.70
2014,09,13,10,06,14.50
2014,09,13,10,07,14.30
2014,09,13,10,08,14.10
2014,09,13,10,09,13.90
2014,09,13,10,10,13.80
2014,09,13,10,11,13.80
2014,09,13,10,12,13.70
2014,09,13,10,13,13.70
2014,09,13,10,14,13.80
2014,09,13,10,15,13.80
2014,09,13,10,16,13.80
2014,09,13,10,17,13.90
2014,09,13,10,18,14.00
2014,09,13,10,19,14.00
2014,09,13,10,20,14.10
2014,09,13,10,21,14.10
2014,09,13,10,22,14.10
2014,09,13,10,23,14.10
2014,09,13,10,24,14.20
2014,09,13,10,25,14.20
2014,09,13,10,26,14.20
2014,09,13,10,27,14.20
2014,09,13,10,28,14.30
2014,09,13,10,29,14.30
2014,09,13,10,30,14.30
2014,09,13,10,31,14.40
2014,09,13,10,32,14.40
2014,09,13,10,33,14.50
2014,09,13,10,34,14.60
2014,09,13,10,35,14.70
2014,09,13,10,36,14.70
2014,09,13,10,37,14.80
2014,09,13,10,38,14.80
2014,09,13,10,39,14.90
2014,09,13,10,40,14.90
2014,09,13,10,41,14.90
2014,09,13,10,42,14.90
2014,09,13,10,43,14.90
2014,09,13,10,44,14.80
2014,09,13,10,45,14.80
2014,09,13,10,46,14.80
2014,09,13,10,47,14.80
2014,09,13,10,48,14.80
2014,09,13,10,49,14.90
2014,09,13,10,50,15.00
2014,09,13,10,51,15.10
2014,09,13,10,52,15.10
2014,09,13,10,53,15.20
2014,09,13,10,54,15.30
2014,09,13,10,55,15.50
2014,09,13,10,56,15.70
2014,09,13,10,57,15.80
2014,09,13,10,58,15.90
2014,09,13,10,59,16.00
2014,09,13,11,00,16.10
2014,09,13,11,01,16.30
2014,09,13,11,02,16.40
2014,09,13,11,03,16.40
2014,09,13,11,04,16.30
2014,09,13,11,05,16.30
2014,09,13,11,06,16.30
2014,09,13,11,07,16.30
2014,09,13,11,08,16.40
2014,09,13,11,09,16.40
2014,09,13,11,10,16.50
2014,09,13,11,11,16.80
2014,09,13,11,12,17.00
2014,09,13,11,13,17.20
2014,09,13,11,14,17.30
2014,09,13,11,15,17.40
2014,09,13,11,16,17.40
2014,09,13,11,17,17.30
2014,09,13,11,18,17.30
2014,09,13,11,19,17.50
2014,09,13,11,20,17.60
2014,09,13,11,21,17.70
2014,09,13,11,22,17.80
2014,09,13,11,23,17.90
2014,09,13,11,24,18.00
2014,09,13,11,25,18.20
2014,09,13,11,26,18.30
2014,09,13,11,27,18.40
2014,09,13,11,28,18.50
2014,09,13,11,29,18.50
2014,09,13,11,30,18.50
2014,09,13,11,31,18.40
2014,09,13,11,32,18.30
2014,09,13,11,33,18.30
2014,09,13,11,34,18.20
2014,09,13,11,35,18.30
2014,09,13,11,36,18.40
2014,09,13,11,37,18.60
2014,09,13,11,38,18.60
2014,09,13,11,39,18.70
2014,09,13,11,40,18.80
2014,09,13,11,41,18.80
2014,09,13,11,42,18.80
2014,09,13,11,43,18.70
2014,09,13,11,44,18.50
2014,09,13,11,45,18.30
2014,09,13,11,46,17.90
2014,09,13,11,47,17.50
2014,09,13,11,48,17.20
2014,09,13,11,49,17.00
2014,09,13,11,50,17.00
2014,09,13,11,51,17.00
2014,09,13,11,52,17.10
2014,09,13,11,53,17.00
2014,09,13,11,54,16.80
2014,09,13,11,55,16.70
2014,09,13,11,56,16.60
2014,09,13,11,57,16.50
2014,09,13,11,58,16.40
2014,09,13,11,59,16.30
2014,09,13,12,00,16.10
2014,09,13,12,01,16.00
2014,09,13,12,02,15.80
2014,09,13,12,03,15.70
2014,09,13,12,04,15.70
2014,09,13,12,05,15.70
2014,09,13,12,06,15.80
2014,09,13,12,07,15.80
2014,09,13,12,08,15.80
2014,09,13,12,09,15.70
2014,09,13,12,10,15.70
2014,09,13,12,11,15.60
2014,09,13,12,12,15.60
2014,09,13,12,13,15.60
2014,09,13,12,14,15.60
2014,09,13,12,15,15.60
2014,09,13,12,16,15.60
2014,09,13,12,17,15.60
2014,09,13,12,18,15.60
2014,09,13,12,19,15.60
2014,09,13,12,20,15.70
2014,09,13,12,21,15.70
2014,09,13,12,22,15.80
2014,09,13,12,23,15.80
2014,09,13,12,24,16.00
2014,09,13,12,25,16.10
2014,09,13,12,26,16.20
2014,09,13,12,27,16.20
2014,09,13,12,28,16.20
2014,09,13,12,29,16.20
2014,09,13,12,30,16.20
2014,09,13,12,31,16.30
2014,09,13,12,32,16.40
2014,09,13,12,33,16.40
2014,09,13,12,34,16.50
2014,09,13,12,35,16.50
2014,09,13,12,36,16.60
2014,09,13,12,37,16.60
2014,09,13,12,38,16.60
2014,09,13,12,39,16.60
2014,09,13,12,40,16.50
2014,09,13,12,41,16.40
2014,09,13,12,42,16.40
2014,09,13,12,43,16.40
2014,09,13,12,44,16.40
2014,09,13,12,45,16.40
2014,09,13,12,46,16.50
2014,09,13,12,47,16.50
2014,09,13,12,48,16.60
2014,09,13,12,49,16.70
2014,09,13,12,50,16.80
2014,09,13,12,51,16.80
2014,09,13,12,52,16.80
2014,09,13,12,53,16.90
2014,09,13,12,54,16.90
2014,09,13,12,55,16.90
2014,09,13,12,56,16.90
2014,09,13,12,57,17.00
2014,09,13,12,58,17.10
2014,09,13,12,59,17.10
2014,09,13,13,00,17.10
2014,09,13,13,01,17.20
2014,09,13,13,02,17.30
2014,09,13,13,03,17.50
2014,09,13,13,04,17.70
2014,09,13,13,05,17.90
2014,09,13,13,06,18.10
2014,09,13,13,07,18.40
2014,09,13,13,08,18.80
2014,09,13,13,09,19.10
2014,09,13,13,10,19.30
2014,09,13,13,11,19.50
2014,09,13,13,12,19.60
2014,09,13,13,13,19.70
2014,09,13,13,14,19.80
2014,09,13,13,15,19.90
2014,09,13,13,16,20.00
2014,09,13,13,17,20.00
2014,09,13,13,18,20.10
2014,09,13,13,19,20.10
2014,09,13,13,20,20.10
2014,09,13,13,21,20.10
2014,09,13,13,22,20.10
2014,09,13,13,23,20.10
2014,09,13,13,24,20.20
2014,09,13,13,25,20.20
2014,09,13,13,26,20.20
2014,09,13,13,27,20.20
2014,09,13,13,28,20.20
2014,09,13,13,29,20.20
2014,09,13,13,30,20.20
2014,09,13,13,31,20.20
2014,09,13,13,32,20.20
2014,09,13,13,33,20.20
2014,09,13,13,34,20.20
2014,09,13,13,35,20.20
2014,09,13,13,36,20.30
2014,09,13,13,37,20.30
2014,09,13,13,38,20.30
2014,09,13,13,39,20.20
2014,09,13,13,40,20.20
2014,09,13,13,41,20.20
2014,09,13,13,42,20.20
2014,09,13,13,43,20.30
2014,09,13,13,44,20.30
2014,09,13,13,45,20.30
2014,09,13,13,46,20.30
2014,09,13,13,47,20.40
2014,09,13,13,48,20.40
2014,09,13,13,49,20.40
2014,09,13,13,50,20.40
2014,09,13,13,51,20.40
2014,09,13,13,52,20.40
2014,09,13,13,53,20.40
2014,09,13,13,54,20.40
2014,09,13,13,55,20.40
2014,09,13,13,56,20.40
2014,09,13,13,57,20.40
2014,09,13,13,58,20.50
2014,09,13,13,59,20.50
2014,09,13,14,00,20.50
2014,09,13,14,01,20.60
2014,09,13,14,02,20.60
2014,09,13,14,03,20.60
2014,09,13,14,04,20.60
2014,09,13,14,05,20.70
2014,09,13,14,06,20.70
2014,09,13,14,07,20.70
2014,09,13,14,08,20.70
2014,09,13,14,09,20.80
2014,09,13,14,10,20.80
2014,09,13,14,11,20.80
2014,09,13,14,12,20.80
2014,09,13,14,13,20.80
2014,09,13,14,14,20.80
2014,09,13,14,15,20.80
2014,09,13,14,16,20.80
2014,09,13,14,17,20.90
2014,09,13,14,18,20.90
2014,09,13,14,19,20.90
2014,09,13,14,20,20.90
2014,09,13,14,21,20.90
2014,09,13,14,22,20.90
2014,09,13,14,23,20.80
2014,09,13,14,24,20.80
2014,09,13,14,25,20.80
2014,09,13,14,26,20.80
2014,09,13,14,27,20.80
2014,09,13,14,28,20.80
2014,09,13,14,29,20.80
2014,09,13,14,30,20.80
2014,09,13,14,31,20.80
2014,09,13,14,32,20.80
2014,09,13,14,33,20.80
2014,09,13,14,34,20.80
2014,09,13,14,35,20.90
2014,09,13,14,36,20.90
2014,09,13,14,37,20.90
2014,09,13,14,38,20.90
2014,09,13,14,39,20.90
2014,09,13,14,40,20.90
2014,09,13,14,41,21.00
2014,09,13,14,42,21.00
2014,09,13,14,43,21.00
2014,09,13,14,44,21.10
2014,09,13,14,45,21.10
2014,09,13,14,46,21.10
2014,09,13,14,47,21.10
2014,09,13,14,48,21.10
2014,09,13,14,49,21.20
2014,09,13,14,50,21.20
2014,09,13,14,51,21.20
2014,09,13,14,52,21.30
2014,09,13,14,53,21.30
2014,09,13,14,54,21.30
2014,09,13,14,55,21.30
2014,09,13,14,56,21.30
2014,09,13,14,57,21.40
2014,09,13,14,58,21.40
2014,09,13,14,59,21.40
2014,09,13,15,00,21.40
2014,09,13,15,01,21.40
2014,09,13,15,02,21.40
2014,09,13,15,03,21.50
2014,09,13,15,04,21.50
2014,09,13,15,05,21.60
2014,09,13,15,06,21.60
2014,09,13,15,07,21.60
2014,09,13,15,08,21.60
2014,09,13,15,09,21.60
2014,09,13,15,10,21.60
2014,09,13,15,11,21.60
2014,09,13,15,12,21.60
2014,09,13,15,13,21.60
2014,09,13,15,14,21.60
2014,09,13,15,15,21.60
2014,09,13,15,16,21.60
2014,09,13,15,17,21.60
2014,09,13,15,18,21.60
2014,09,13,15,19,21.60
2014,09,13,15,20,21.70
2014,09,13,15,21,21.70
2014,09,13,15,22,21.70
2014,09,13,15,23,21.70
2014,09,13,15,24,21.70
2014,09,13,15,25,21.70
2014,09,13,15,26,21.70
2014,09,13,15,27,21.70
2014,09,13,15,28,21.70
2014,09,13,15,29,21.70
2014,09,13,15,30,21.80
2014,09,13,15,31,21.80
2014,09,13,15,32,21.80
2014,09,13,15,33,21.80
2014,09,13,15,34,21.80
2014,09,13,15,35,21.80
2014,09,13,15,36,21.80
2014,09,13,15,37,21.80
2014,09,13,15,38,21.80
2014,09,13,15,39,21.80
2014,09,13,15,40,21.80
2014,09,13,15,41,21.80
2014,09,13,15,42,21.80
2014,09,13,15,43,21.80
2014,09,13,15,44,21.80
2014,09,13,15,45,21.80
2014,09,13,15,46,21.90
2014,09,13,15,47,21.90
2014,09,13,15,48,21.90
2014,09,13,15,49,21.90
2014,09,13,15,50,21.90
2014,09,13,15,51,21.90
2014,09,13,15,52,22.00
2014,09,13,15,53,22.00
2014,09,13,15,54,22.00
2014,09,13,15,55,22.00
2014,09,13,15,56,21.90
2014,09,13,15,57,21.90
2014,09,13,15,58,21.90
2014,09,13,15,59,22.00
2014,09,13,16,00,22.00
2014,09,13,16,01,22.00
2014,09,13,16,02,21.90
2014,09,13,16,03,21.90
2014,09,13,16,04,21.90
2014,09,13,16,05,21.90
2014,09,13,16,06,22.00
2014,09,13,16,07,22.00
2014,09,13,16,08,22.00
2014,09,13,16,09,22.10
2014,09,13,16,10,22.00
2014,09,13,16,11,22.00
2014,09,13,16,12,22.00
2014,09,13,16,13,22.10
2014,09,13,16,14,22.10
2014,09,13,16,15,22.10
2014,09,13,16,16,22.00
2014,09,13,16,17,22.00
2014,09,13,16,18,21.90
2014,09,13,16,19,21.90
2014,09,13,16,20,21.90
2014,09,13,16,21,22.00
2014,09,13,16,22,22.00
2014,09,13,16,23,22.00
2014,09,13,16,24,22.00
2014,09,13,16,25,22.00
2014,09,13,16,26,22.00
2014,09,13,16,27,22.00
2014,09,13,16,28,22.00
2014,09,13,16,29,22.00
2014,09,13,16,30,22.10
2014,09,13,16,31,22.10
2014,09,13,16,32,22.10
2014,09,13,16,33,22.10
2014,09,13,16,34,22.10
2014,09,13,16,35,22.10
2014,09,13,16,36,22.10
2014,09,13,16,37,22.10
2014,09,13,16,38,22.10
2014,09,13,16,39,22.10
2014,09,13,16,40,22.20
2014,09,13,16,41,22.20
2014,09,13,16,42,22.20
2014,09,13,16,43,22.20
2014,09,13,16,44,22.20
2014,09,13,16,45,22.20
2014,09,13,16,46,22.20
2014,09,13,16,47,22.20
2014,09,13,16,48,22.20
2014,09,13,16,49,22.20
2014,09,13,16,50,22.20
2014,09,13,16,51,22.20
2014,09,13,16,52,22.20
2014,09,13,16,53,22.20
2014,09,13,16,54,22.20
2014,09,13,16,55,22.20
2014,09,13,16,56,22.20
2014,09,13,16,57,22.20
2014,09,13,16,58,22.30
2014,09,13,16,59,22.30
2014,09,13,17,00,22.30
2014,09,13,17,01,22.30
2014,09,13,17,02,22.30
2014,09,13,17,03,22.20
2014,09,13,17,04,22.20
2014,09,13,17,05,21.90
2014,09,13,17,06,21.50
2014,09,13,17,07,21.30
2014,09,13,17,08,21.10
2014,09,13,17,09,20.90
2014,09,13,17,10,20.80
2014,09,13,17,11,20.80
2014,09,13,17,12,20.80
2014,09,13,17,13,20.80
2014,09,13,17,14,20.70
2014,09,13,17,15,20.60
2014,09,13,17,16,20.60
2014,09,13,17,17,20.50
2014,09,13,17,18,20.40
2014,09,13,17,19,20.40